This is the latest recevied weather packets stored in our database for station/object KG4ZVW. If no packets are shown the sender has not sent any weather packets the latest 10 day(s).
| Time | Temp. | Humidity | Pressure | Rain* | Wind** | Luminosity | Snow |
|---|---|---|---|---|---|---|---|
| 1777505611 | 26.67° C | 68% | 1010.9 hPa | 0 mm | - | 23 W/m² | - |
| 1777504111 | 27.22° C | 66% | 1010.9 hPa | 0 mm | - | 84 W/m² | - |
| 1777502615 | 27.78° C | 64% | 1010.9 hPa | 0 mm | - | 158 W/m² | - |
| 1777502309 | 27.78° C | 63% | 1010.9 hPa | 0 mm | - | 176 W/m² | - |
| 1777502006 | 27.78° C | 64% | 1010.9 hPa | 0 mm | - | 192 W/m² | - |
| 1777501701 | 28.33° C | 64% | 1010.9 hPa | 0 mm | - | 211 W/m² | - |
| 1777501416 | 27.78° C | 64% | 1010.9 hPa | 0 mm | - | 227 W/m² | - |
| 1777501111 | 28.33° C | 63% | 1010.9 hPa | 0 mm | - | 244 W/m² | - |
| 1777500807 | 27.78° C | 62% | 1010.9 hPa | 0 mm | - | 264 W/m² | - |
| 1777500504 | 28.33° C | 62% | 1011 hPa | 0 mm | - | 279 W/m² | - |
| 1777500219 | 28.33° C | 61% | 1011 hPa | 0 mm | - | 295 W/m² | - |
| 1777499913 | 28.33° C | 62% | 1011 hPa | 0 mm | - | 311 W/m² | - |
| 1777499607 | 28.33° C | 62% | 1011 hPa | 0 mm | - | 332 W/m² | - |
| 1777499303 | 28.89° C | 62% | 1011 hPa | 0 mm | - | 350 W/m² | - |
| 1777498412 | 28.89° C | 60% | 1011.3 hPa | 0 mm | - | 406 W/m² | - |
| 1777498108 | 28.89° C | 59% | 1011.3 hPa | 0 mm | - | 427 W/m² | - |
| 1777497802 | 29.44° C | 58% | 1011.4 hPa | 0 mm | - | 448 W/m² | - |
| 1777497516 | 29.44° C | 59% | 1011.4 hPa | 0 mm | - | 403 W/m² | - |
| 1777497212 | 29.44° C | 60% | 1011.4 hPa | 0 mm | - | 425 W/m² | - |
| 1777496907 | 29.44° C | 58% | 1011.4 hPa | 0 mm | - | 499 W/m² | - |
| 1777496601 | 30° C | 57% | 1011.4 hPa | 0 mm | - | 510 W/m² | - |
| 1777496312 | 30° C | 57% | 1011.4 hPa | 0 mm | - | 526 W/m² | - |
| 1777495703 | 30° C | 58% | 1011.7 hPa | 0 mm | - | 555 W/m² | - |
| 1777495119 | 30° C | 58% | 1012 hPa | 0 mm | - | 585 W/m² | - |
| 1777494813 | 30° C | 57% | 1012 hPa | 0 mm | - | 601 W/m² | - |
* Rain latest hour (hover to see other rain measurements)
** Current wind speed in m/s (hover to see current wind gust speed)